Weather History for Angleton, TX

Change the Weather History Date:

Thursday, March 20, 2014

  Actual Average Record
Temperature  
Mean Temperature 62 °F -  
Max Temperature 75 °F 69 °F 80 °F (2006)
Min Temperature 51 °F 53 °F 42 °F (2001)
Degree Days  
Heating Degree Days 3    
Growing Degree Days 12 (Base 50)    
Moisture  
Dew Point 48 °F    
Average Humidity 62    
Maximum Humidity 96    
Minimum Humidity 40    
Precipitation  
Precipitation 0.00 in - - ()
Sea Level Pressure  
Sea Level Pressure 30.12 in    
Wind  
Wind Speed 7 mph (NE)    
Max Wind Speed 12 mph    
Max Gust Speed -    
Visibility 9 miles    
Events Rain    
Averages and records for this station are not official NWS values.
T = Trace of Precipitation, MM = Missing Value Source: NWS Daily Summary

Daily Weather History Graph

Daily Weather History Graph

Search for Another Location

Airport:

Trip Planner

Search our weather history database for the weather conditions in past years. The results will help you decide how hot, cold, wet, or windy it might be!

Date:

Astronomy

Mar. 20, 2014 Rise Set
Actual Time 7:25 AM CDT 7:33 PM CDT
Civil Twilight 7:02 AM CDT 7:56 PM CDT
Nautical Twilight 6:34 AM CDT 8:24 PM CDT
Astronomical Twilight 6:06 AM CDT 8:52 PM CDT
Moon 11:34 PM CDT (3/20) 9:50 AM CDT (3/20)
Length of Visible Light 12h 54m
Length of Day
12h 07m
Waning Gibbous, 84% of the Moon is Illuminated
Mar 20
Waning Gibbous
Mar 23
Last Quarter
Mar 30
New
Apr 7
First Quarter
Apr 15
Full

Hourly Weather History & Observations

Time (CDT) Temp. Dew Point Humidity Pressure Visibility Wind Dir Wind Speed Gust Speed Precip Events Conditions
12:53 AM 63.0 °F 53.1 °F 70% 30.14 in 10.0 mi North 5.8 mph - N/A   Overcast
1:53 AM 63.0 °F 48.9 °F 60% 30.13 in 10.0 mi NNE 10.4 mph - N/A   Overcast
2:53 AM 62.1 °F 46.0 °F 56% 30.13 in 10.0 mi NNE 11.5 mph - N/A   Overcast
3:53 AM 61.0 °F 46.0 °F 58% 30.12 in 10.0 mi NNE 9.2 mph - N/A   Mostly Cloudy
4:53 AM 57.0 °F 45.0 °F 64% 30.13 in 10.0 mi North 5.8 mph - N/A   Scattered Clouds
5:53 AM 57.9 °F 46.0 °F 65% 30.14 in 10.0 mi NNE 6.9 mph - N/A   Overcast
6:53 AM 57.9 °F 46.0 °F 65% 30.16 in 10.0 mi NNE 8.1 mph - N/A   Overcast
7:53 AM 59.0 °F 44.1 °F 58% 30.17 in 10.0 mi NNE 11.5 mph - N/A   Overcast
8:53 AM 59.0 °F 46.0 °F 62% 30.19 in 10.0 mi North 5.8 mph - N/A   Mostly Cloudy
9:53 AM 63.0 °F 44.1 °F 50% 30.20 in 10.0 mi NE 9.2 mph - N/A   Scattered Clouds
10:53 AM 66.0 °F 44.1 °F 45% 30.20 in 10.0 mi Variable 6.9 mph - N/A   Clear
11:53 AM 69.1 °F 45.0 °F 42% 30.19 in 10.0 mi Variable 4.6 mph - N/A   Clear
12:53 PM 72.0 °F 46.9 °F 41% 30.17 in 10.0 mi East 8.1 mph - N/A   Clear
1:53 PM 73.9 °F 48.0 °F 40% 30.14 in 10.0 mi NE 6.9 mph - N/A   Clear
2:53 PM 73.9 °F 48.0 °F 40% 30.12 in 10.0 mi ESE 11.5 mph - N/A   Clear
3:53 PM 73.9 °F 50.0 °F 43% 30.10 in 10.0 mi Variable 6.9 mph - N/A   Clear
4:53 PM 73.0 °F 50.0 °F 44% 30.08 in 10.0 mi ESE 10.4 mph - N/A   Clear
5:53 PM 70.0 °F 48.0 °F 46% 30.07 in 10.0 mi East 11.5 mph - N/A   Clear
6:53 PM 66.0 °F 46.9 °F 50% 30.08 in 10.0 mi ESE 5.8 mph - N/A   Clear
7:53 PM 62.1 °F 46.9 °F 58% 30.07 in 10.0 mi SE 4.6 mph - N/A   Clear
8:53 PM 54.0 °F 48.9 °F 83% 30.09 in 10.0 mi South 6.9 mph - 0.00 in Rain Light Rain
9:53 PM 54.0 °F 51.1 °F 90% 30.09 in 10.0 mi Calm Calm - 0.00 in   Clear
10:53 PM 51.1 °F 48.9 °F 92% 30.09 in 8.0 mi Calm Calm - N/A   Clear
11:15 PM 52.0 °F 50.0 °F 93% 30.09 in 1.8 mi Calm Calm - N/A   Clear
11:23 PM 52.0 °F 50.0 °F 93% 30.08 in 3.0 mi Calm Calm - N/A   Clear
11:53 PM 51.1 °F 50.0 °F 96% 30.08 in 4.0 mi Calm Calm - N/A   Clear